Regional Weather Roundup
Issued by NWS

Home | Current Version | Previous Version | Text Only | Print | Product List | Glossary Off
Versions: 1 2 3 4 5 6 7 8 9 10 11 12 13 14 15 16 17 18 19 20 21 22 23 24 25 26 27 28 29 30 31 32 33 34 35 36 37 38 39 40 41 42 43 44 45 46 47 48 49 50

000
ASUS45 KABQ 160910
RWRNM
NEW MEXICO REGIONAL WEATHER ROUNDUP
NATIONAL WEATHER SERVICE ALBUQUERQUE NM
200 AM MST TUE JAN 16 2018

NOTE: "FAIR" MEANS FEW OR NO CLOUDS BELOW 12,000 FEET AGL WITH NO
       SIGNIFICANT WEATHER OR OBSTRUCTIONS TO VISION.

      THIS PRODUCT IS RELEASED AS TWO VERSIONS.  ONE VERSION NEAR
      THE TOP OF THE HOUR CONTAINING PRELIMINARY DATA FROM ALBUQUERQUE
      AND OTHER STATIONS.  A FINAL VERSION WITH ADDITIONAL DATA IS
      ISSUED ABOUT 10 MINUTES AFTER THE HOUR.

NMZ501-503-504-510>518-161000-
NORTHWEST PLATEAU/NORTHCENTRAL MOUNTAINS

CITY           SKY/WX    TMP DP  RH WIND       PRES   REMARKS
FARMINGTON     FAIR      24  20  84 E6        30.29R WCI  17
LOS ALAMOS     CLOUDY    17  15  90 S12G18    30.39R WCI   5
SANTA FE       CLOUDY    19  15  84 SE18      30.43R WCI   4
TAOS           CLOUDY    22  16  78 W5        30.41R WCI  16
ANGEL FIRE     CLOUDY    13   9  81 S6        30.35R WCI   4

$$
NMZ402-403-502-505>509-161000-
WESTCENTRAL MOUNTAINS/SOUTHWEST MOUNTAINS

CITY           SKY/WX    TMP DP  RH WIND       PRES   REMARKS
GALLUP         FAIR      21  17  84 CALM      30.29R
GRANTS         FAIR      24  19  83 S14       30.37R WCI  11
SILVER CITY    FAIR      31  20  65 SE9       30.34R WCI  22

$$
NMZ407-409-411-412-161000-
SOUTHERN DESERTS

CITY           SKY/WX    TMP DP  RH WIND       PRES   REMARKS
DEMING         FAIR      32  21  64 E15       30.37R WCI  22
LAS CRUCES     FAIR      33  19  58 SE18G24   30.38R WCI  21
HOLLOMAN AFB   FAIR      31  20  63 SW12      30.44R WCI  22
ALAMOGORDO     FAIR      32  19  59 N7        30.43R WCI  26
T OR C         FAIR      30  18  60 NE16G25   30.38R WCI  19

$$
NMZ519>523-161000-
CENTRAL VALLEYS/CENTRAL HIGHLANDS

CITY           SKY/WX    TMP DP  RH WIND       PRES   REMARKS
ALBUQUERQUE    FAIR      25  15  66 E20G28    30.42R WCI  11
MORIARTY ARPT  CLOUDY    20  17  87 SE10      30.47S WCI   9
CLINES CORNERS CLOUDY    14  12  92 SE10      30.42S FOG     WCI   1
BELEN          FAIR      25  19  76 NW9       30.42R WCI  15
SOCORRO        FAIR      22  15  74 CALM      30.44R

$$
NMZ524>526-539-540-161000-
SOUTHCENTRAL MOUNTAINS

CITY           SKY/WX    TMP DP  RH WIND       PRES   REMARKS
RUIDOSO        CLOUDY    16   7  67 SE9       30.47S WCI   4

$$
NMZ527>531-161000-
NORTHEAST HIGHLANDS/NORTHEAST PLAINS

CITY           SKY/WX    TMP DP  RH WIND       PRES   REMARKS
LAS VEGAS      LGT SNOW  15  13  91 S7        30.43S FOG     WCI   5
RATON          CLOUDY    15  12  88 S8        30.44R WCI   4
CLAYTON        FAIR       3  -4  72 CALM      30.54R

$$
NMZ532>537-161000-
EASTCENTRAL PLAINS

CITY           SKY/WX    TMP DP  RH WIND       PRES   REMARKS
SANTA ROSA     CLOUDY    21  11  65 CALM      30.54F
TUCUMCARI      CLOUDY    23   8  52 E6        30.56S WCI  16
CANNON AFB     CLOUDY    21   7  54 NE8       30.57S WCI  11
CLOVIS AIRPORT CLOUDY    20   5  52 NE8       30.58R WCI  10

$$
NMZ028-029-538-161000-
SOUTHEAST PLAINS

CITY           SKY/WX    TMP DP  RH WIND       PRES   REMARKS
ROSWELL        CLOUDY    28   5  37 E8        30.60R WCI  20
ARTESIA        CLOUDY    28   7  40 NE7       30.62S WCI  21
CARLSBAD       CLOUDY    28   9  44 NE9       30.62R WCI  19
HOBBS          CLOUDY    21   7  53 NE12      30.59S WCI   9


$$




USA.gov is the U.S. government's official web portal to all federal, state and local government web resources and services.